Wind_Speed
22 19 23 24 17 16 15 10 4 3 3 6 8 8 7 7 5 7 7 7 7 4 3 9 10 7 7 10 11 13 17 14 17 16 17 18 16 18 17 21 16 23 24
21 22 29 26 16 16 16 9 4 4 3 6 7 7 8 9 9 9 6 9 13 9 7 4 5 9 11 8 10 11 14 18 19 19 18 17 17 14 15 18 12 18 19
23 27 29 23 16 15 12 10 6 6 6 5 3 9 11 10 13 10 6 6 12 15 15 13 4 10 11 10 9 13 15 14 14 21 22 20 18 16 17 12 14 20 12
21 26 25 18 15 12 9 8 9 10 8 9 9 8 7 10 11 11 11 13 11 11 10 12 17 13 13 15 15 17 16 19 19 21 26 26 22 18 16 14 13 9 14
27 25 25 24 19 14 15 15 11 4 8 10 9 8 10 7 7 11 11 15 18 9 8 14 15 14 19 16 18 18 18 18 20 23 27 28 27 23 21 15 12 12 12
27 25 20 24 22 14 11 17 13 14 13 18 8 11 12 10 10 8 10 9 11 12 16 24 23 22 17 17 19 21 22 21 24 27 30 28 27 27 23 21 16 14 11
25 24 19 20 23 19 16 17 14 9 11 15 11 13 12 12 15 16 14 12 10 14 12 16 18 23 25 25 25 26 29 28 28 30 30 29 28 27 24 23 20 19 17
22 18 22 23 20 19 18 19 15 13 12 17 21 19 17 17 18 18 16 13 17 16 15 20 20 16 22 22 22 24 28 31 31 30 34 35 35 30 26 24 22 20 18
19 22 20 20 18 16 19 20 20 20 22 23 29 25 28 29 28 23 20 20 22 18 22 24 18 26 27 29 27 25 29 32 34 36 37 37 36 31 26 24 22 19 20
26 27 25 19 20 21 24 26 29 24 25 27 32 33 29 31 36 33 27 24 25 27 27 27 28 30 32 31 32 34 39 40 39 39 38 39 35 32 29 30 29 28 25
23 26 25 24 24 23 20 22 26 26 29 27 27 29 30 33 37 37 33 31 30 30 32 37 39 40 38 37 37 39 42 45 46 46 47 42 40 39 33 33 34 31 27
28 28 28 26 25 26 26 30 30 31 30 31 34 35 36 41 39 34 35 35 33 33 36 40 42 43 45 44 44 45 47 50 50 51 51 45 39 32 31 32 33 34 32
26 29 29 30 32 34 36 38 36 37 36 39 42 45 47 46 38 34 36 38 38 38 39 41 41 45 48 49 51 52 54 53 53 50 44 38 34 33 36 35 35 34 35
32 31 33 33 35 38 41 39 37 41 45 48 49 52 53 47 42 38 37 38 40 43 45 46 48 51 54 56 56 57 54 54 50 41 39 37 39 40 37 33 32 30 27
30 32 33 32 35 38 41 46 48 53 53 53 49 49 47 46 46 45 44 43 44 49 51 52 51 52 55 57 56 56 51 49 45 40 39 42 42 37 32 28 25 24 23
34 35 37 33 33 36 38 41 44 47 47 49 49 51 51 51 52 52 46 46 46 47 51 52 53 53 51 52 51 51 48 47 44 41 41 42 39 32 29 24 24 24 23
27 29 30 25 25 25 35 31 35 41 46 48 47 46 42 42 42 46 41 37 39 42 47 48 49 48 46 45 47 48 47 45 44 42 42 40 36 32 27 27 29 28 25
20 17 25 24 25 32 34 27 43 38 42 47 48 45 43 45 44 42 42 44 43 45 44 43 43 42 41 42 43 42 42 43 44 45 42 37 35 31 28 34 33 35 32
21 25 25 34 41 38 40 38 51 48 49 51 46 52 52 53 52 49 51 53 48 42 47 46 44 42 40 39 38 37 37 40 42 42 41 36 36 34 34 41 40 39 40
18 30 29 31 34 36 43 47 50 55 56 62 63 59 63 56 53 55 56 61 63 56 51 50 54 48 45 46 44 37 35 36 38 41 43 41 39 38 39 46 49 48 47
24 25 34 33 34 41 42 41 46 47 56 61 69 70 66 66 68 69 74 70 68 64 62 58 55 58 59 55 52 51 45 42 41 39 43 43 44 42 40 48 53 55 55
38 35 35 36 39 42 46 51 53 54 57 60 63 67 71 74 76 72 73 73 70 74 67 69 68 63 64 65 64 63 62 59 51 48 45 47 48 47 47 48 57 61 62
41 44 44 47 50 49 52 57 60 66 70 69 69 70 72 74 76 74 72 73 73 74 73 72 69 67 68 69 72 71 69 65 63 59 55 54 50 54 53 55 53 55 54
36 41 44 46 48 49 52 53 56 61 65 68 70 69 70 74 75 75 75 72 71 73 74 74 73 74 74 75 76 75 73 72 71 70 65 63 58 58 55 62 62 62 64
36 39 43 46 48 51 55 58 60 63 64 66 70 72 74 75 75 76 76 64 48 71 76 71 71 76 80 82 80 80 79 76 76 73 71 71 69 67 68 65 63 65 66
37 39 42 45 48 51 55 58 62 65 67 69 71 74 76 77 79 80 78 70 57 71 76 77 74 81 75 72 77 82 82 86 83 82 80 80 82 84 82 77 74 72 71
Wind_Direction
196 199 185 196 190 196 184 199 194 219 321 338 335 333 345 40 24 15 311 282 268 309 257 351 360 12 8 2 356 347 350 352 352 360 352 357 360 11 14 10 15 10 14
197 194 188 189 171 182 203 223 193 245 318 327 350 330 318 327 338 3 290 274 279 275 306 317 338 321 337 346 334 354 0 11 349 347 349 354 344 351 355 342 355 358 7
195 193 198 196 191 181 210 211 222 285 283 288 310 327 307 326 326 337 342 327 285 279 290 296 291 318 319 332 329 327 331 357 349 343 344 341 342 329 324 330 331 330 343
180 193 197 194 190 190 208 216 241 283 290 275 302 307 320 310 304 311 324 322 309 297 288 283 282 317 325 346 335 333 337 345 338 338 345 344 331 331 331 326 322 333 334
192 197 206 213 218 227 239 244 233 244 317 272 301 315 314 308 316 324 336 328 322 272 293 287 274 290 301 326 331 326 332 335 331 331 333 338 338 327 326 322 314 318 322
192 200 215 224 231 220 230 239 250 259 246 287 288 305 314 320 326 341 325 336 355 326 317 310 307 297 288 313 320 311 318 326 325 327 328 329 324 324 318 317 308 302 315
200 214 221 209 205 228 261 239 247 238 270 275 281 300 316 326 314 317 304 298 333 295 300 281 289 318 307 313 303 314 310 317 319 320 325 327 323 318 313 309 306 298 291
208 214 227 217 224 239 243 241 257 267 269 279 295 295 289 293 294 303 292 277 279 287 281 289 306 293 290 308 311 305 307 308 313 315 316 316 317 313 309 303 301 295 288
206 223 207 227 239 237 245 252 269 275 284 293 286 287 298 291 295 296 287 275 265 274 272 277 270 297 299 307 301 306 305 307 308 306 307 312 309 310 302 297 291 296 288
220 229 237 247 248 266 267 272 271 268 292 296 293 292 299 302 300 297 290 294 291 285 282 264 269 285 298 301 298 295 296 301 303 307 304 302 301 301 295 290 287 285 288
226 230 238 250 251 261 262 276 275 266 281 283 293 296 289 304 308 294 285 286 287 282 281 283 278 281 291 298 298 297 298 301 302 303 305 298 293 295 292 286 290 285 283
225 229 228 236 248 256 264 279 275 276 283 288 290 292 294 298 304 288 282 285 286 283 281 281 283 283 285 291 295 297 296 299 302 302 302 295 293 288 290 287 286 283 279
231 231 238 254 266 272 278 284 280 282 285 286 290 290 292 291 292 285 284 290 292 290 287 282 284 285 285 287 289 292 298 297 299 299 295 292 289 289 289 283 282 279 274
239 241 248 258 266 267 274 278 282 283 283 285 287 288 288 287 284 285 285 286 287 287 287 287 286 285 285 287 290 293 295 295 297 293 292 291 287 294 287 280 277 275 267
244 253 259 265 272 276 280 284 284 284 286 287 288 287 288 287 287 287 286 285 283 283 283 282 282 284 285 286 287 288 291 295 294 291 291 295 292 286 282 275 257 254 249
247 254 259 269 278 285 286 286 280 284 285 285 284 286 285 286 284 285 286 286 286 287 289 288 287 285 285 286 286 287 287 288 286 288 290 292 289 281 275 251 236 235 237
255 256 258 256 276 272 278 280 286 291 290 287 284 282 282 283 281 276 278 281 285 291 292 292 291 290 287 285 285 286 285 285 284 285 288 292 284 279 264 236 229 224 223
244 259 243 243 245 255 256 270 276 275 278 275 276 277 276 276 278 284 284 286 291 293 297 293 293 295 293 291 287 287 285 283 283 283 284 286 279 269 250 227 225 217 227
236 238 251 264 268 261 260 260 261 265 269 271 276 279 277 273 277 283 285 288 289 289 289 293 293 290 291 290 290 286 283 280 278 279 279 277 274 264 252 226 224 225 226
223 233 246 262 255 259 267 258 269 272 268 273 279 278 279 281 279 284 284 287 288 288 288 288 290 286 289 288 288 282 281 284 285 279 275 273 269 264 257 241 230 229 229
240 250 257 262 260 263 266 274 278 278 279 277 276 279 283 283 283 283 281 282 283 283 286 287 284 281 282 283 283 284 282 278 277 282 282 275 266 264 259 249 241 240 237
242 256 268 269 267 271 271 273 271 273 274 275 278 281 285 286 284 284 283 280 281 280 279 280 282 279 278 279 280 278 279 278 274 276 276 276 265 260 260 257 247 244 245
254 262 276 278 282 283 278 274 275 277 278 282 284 284 285 286 286 286 285 286 285 284 280 277 274 271 270 271 272 272 273 273 269 272 273 271 270 263 258 257 259 257 261
283 281 283 283 283 283 282 281 280 279 278 278 279 280 280 282 282 283 284 283 282 280 280 275 266 264 264 264 265 264 263 264 265 266 268 270 269 269 265 259 257 258 256
289 289 288 288 287 287 287 285 286 285 285 286 285 284 283 281 280 280 280 281 276 279 284 280 272 265 261 261 261 260 260 259 261 262 260 263 268 268 266 263 260 259 260
300 299 299 298 297 295 293 291 290 290 288 288 286 285 283 280 279 279 276 272 250 256 263 265 265 265 263 262 264 262 260 259 258 258 260 261 261 265 266 263 260 260 260
Height
10996 11000 11003 11006 11009 11012 11015 11016 11018 11019 11019 11019 11017 11016 11017 11017 11015 11014 11014 11013 11014 11013 11013 11012 11010 11009 11007 11006 11006 11005 11004 11003 11002 10999 10998 10996 10995 10994 10992 10990 10987 10986 10984
10996 10999 11003 11008 11010 11012 11015 11016 11018 11017 11017 11018 11017 11016 11016 11016 11014 11013 11014 11013 11012 11012 11012 11012 11011 11008 11007 11006 11005 11005 11003 11002 11001 11000 10998 10995 10993 10992 10991 10991 10989 10987 10986
10996 11000 11002 11007 11010 11011 11014 11015 11016 11016 11017 11017 11016 11014 11015 11015 11013 11012 11012 11012 11011 11010 11010 11012 11011 11009 11007 11005 11005 11003 11002 11001 11001 10999 10997 10994 10992 10991 10989 10990 10988 10987 10986
10996 11000 11003 11006 11010 11012 11013 11014 11015 11016 11016 11015 11014 11014 11014 11014 11011 11011 11010 11009 11008 11008 11008 11008 11010 11009 11006 11005 11003 11002 11000 10999 10999 10997 10995 10992 10990 10989 10988 10988 10987 10986 10984
10995 10998 11003 11006 11009 11011 11013 11013 11014 11015 11013 11014 11012 11011 11012 11012 11010 11009 11008 11008 11007 11006 11006 11006 11007 11007 11005 11004 11002 11001 11000 10998 10997 10995 10993 10991 10988 10987 10986 10985 10985 10984 10982
10993 10997 11001 11004 11008 11011 11011 11012 11013 11014 11014 11013 11012 11011 11010 11009 11008 11007 11006 11006 11007 11007 11007 11008 11006 11004 11003 11002 11001 10999 10998 10997 10995 10994 10991 10989 10987 10985 10984 10983 10982 10982 10980
10994 10998 11001 11004 11006 11008 11009 11011 11012 11012 11012 11012 11010 11009 11009 11009 11008 11008 11007 11006 11005 11006 11004 11004 11002 11001 11000 11000 10998 10996 10995 10994 10993 10991 10989 10986 10984 10982 10980 10979 10979 10977 10976
10994 10997 11001 11003 11006 11007 11008 11010 11011 11012 11010 11010 11008 11008 11007 11007 11007 11005 11004 11004 11003 11002 11001 10999 10998 10999 10999 10997 10995 10995 10993 10991 10989 10987 10985 10983 10980 10978 10976 10975 10974 10973 10972
10993 10997 11000 11003 11005 11006 11007 11007 11008 11010 11008 11006 11006 11005 11005 11003 11002 11003 11001 10998 10997 10996 10996 10995 10994 10995 10994 10992 10990 10989 10988 10986 10984 10982 10979 10978 10976 10973 10971 10970 10970 10969 10968
10991 10994 10997 11000 11002 11003 11004 11005 11005 11006 11006 11005 11004 11001 11000 10999 10997 10997 10995 10993 10992 10991 10991 10990 10990 10989 10988 10987 10984 10983 10982 10980 10978 10976 10974 10971 10969 10967 10966 10964 10964 10963 10962
10987 10991 10994 10996 10997 10998 10998 10998 10998 10998 10998 10999 10998 10996 10994 10994 10993 10991 10989 10987 10985 10985 10985 10982 10982 10981 10980 10979 10977 10975 10973 10972 10969 10967 10965 10965 10962 10959 10957 10956 10955 10955 10955
10981 10985 10987 10989 10990 10991 10991 10991 10991 10991 10990 10989 10989 10988 10986 10986 10985 10983 10982 10980 10978 10977 10977 10976 10973 10972 10971 10969 10968 10967 10965 10962 10960 10957 10955 10953 10952 10950 10948 10947 10947 10946 10947
10980 10982 10984 10987 10988 10989 10987 10986 10986 10985 10983 10983 10982 10981 10978 10976 10974 10972 10970 10969 10967 10967 10967 10966 10966 10963 10961 10960 10960 10957 10955 10952 10949 10947 10945 10943 10942 10942 10940 10938 10938 10939 10939
10973 10975 10976 10978 10978 10978 10979 10978 10978 10977 10975 10973 10970 10969 10968 10965 10963 10961 10960 10959 10956 10953 10953 10955 10955 10954 10951 10948 10948 10946 10944 10940 10938 10937 10935 10932 10930 10930 10928 10929 10927 10928 10930
10969 10971 10973 10974 10974 10974 10972 10971 10969 10967 10965 10963 10961 10960 10958 10957 10955 10952 10951 10950 10948 10944 10942 10941 10943 10941 10938 10936 10936 10934 10932 10930 10927 10926 10924 10923 10920 10918 10919 10918 10919 10920 10922
10965 10967 10966 10964 10965 10965 10963 10962 10958 10955 10954 10952 10950 10949 10948 10947 10944 10942 10940 10939 10936 10933 10928 10927 10927 10927 10926 10922 10920 10920 10919 10919 10917 10916 10915 10913 10910 10909 10910 10910 10911 10913 10915
10959 10957 10956 10956 10953 10953 10949 10949 10949 10947 10944 10942 10940 10938 10937 10935 10933 10930 10929 10928 10926 10923 10918 10913 10911 10911 10910 10909 10907 10904 10904 10905 10904 10905 10904 10903 10901 10901 10901 10902 10904 10905 10907
10952 10950 10949 10947 10944 10939 10940 10941 10940 10935 10932 10930 10931 10929 10926 10924 10923 10923 10921 10919 10917 10914 10909 10904 10900 10899 10898 10896 10895 10894 10892 10892 10892 10892 10893 10893 10892 10892 10893 10895 10895 10897 10900
10943 10942 10943 10940 10936 10934 10933 10932 10927 10926 10922 10918 10919 10919 10918 10915 10914 10914 10912 10909 10907 10906 10902 10897 10893 10890 10888 10886 10885 10884 10883 10882 10881 10881 10882 10883 10883 10883 10885 10885 10887 10888 10889
10935 10936 10936 10933 10932 10929 10926 10926 10922 10919 10914 10908 10905 10906 10904 10904 10904 10902 10900 10898 10895 10893 10892 10889 10885 10881 10879 10877 10877 10875 10874 10872 10871 10871 10870 10872 10872 10873 10874 10876 10876 10877 10877
10933 10932 10931 10927 10923 10919 10917 10915 10911 10907 10902 10898 10895 10890 10889 10890 10888 10886 10882 10880 10878 10876 10875 10874 10871 10867 10865 10864 10862 10862 10863 10862 10860 10860 10860 10860 10861 10862 10864 10864 10865 10867 10868
10931 10928 10924 10921 10917 10913 10908 10904 10899 10895 10890 10884 10880 10876 10872 10867 10864 10864 10862 10863 10863 10860 10857 10856 10853 10850 10848 10847 10846 10846 10847 10850 10848 10848 10846 10849 10846 10849 10852 10853 10853 10852 10855
10926 10922 10918 10914 10908 10903 10898 10893 10887 10881 10876 10871 10865 10861 10855 10848 10843 10842 10840 10837 10837 10835 10834 10831 10829 10827 10827 10827 10826 10827 10827 10830 10833 10835 10833 10832 10835 10835 10837 10837 10839 10840 10841
10917 10912 10908 10902 10897 10891 10885 10879 10872 10866 10861 10857 10852 10848 10841 10833 10826 10820 10818 10819 10817 10811 10808 10807 10806 10803 10802 10801 10802 10804 10805 10808 10811 10814 10817 10813 10820 10820 10823 10821 10821 10821 10823
10908 10903 10898 10892 10886 10879 10872 10864 10857 10851 10844 10838 10831 10824 10819 10813 10809 10804 10799 10801 10801 10788 10785 10781 10776 10775 10777 10777 10778 10779 10781 10783 10786 10791 10795 10798 10798 10801 10801 10803 10803 10801 10801
10900 10894 10888 10881 10874 10865 10856 10848 10840 10831 10824 10817 10809 10802 10795 10788 10783 10780 10777 10776 10775 10771 10761 10751 10746 10743 10746 10751 10752 10753 10754 10757 10760 10764 10770 10773 10775 10774 10778 10781 10782 10781 10781